Torna al catalogo

SL-3 R/B

AttivoSSO
NORAD 10114·ROCKET BODY·🇷🇺 Russia

Lanciato Jun 29, 1977 da Baikonur Cosmodrome

Loading…

Prossimi Passaggi (prossime 24 ore)

TLE

AggiornatoSource: Space-Track

Epoca: Sep 14, 2026, 13:48 UTC

1 10114U 77057B   26257.57523489  .00009748  00000-0  17851-3 0  9991
2 10114  97.5878  78.5903 0005638 328.1130  31.9778 15.49536223697541

Traccia SL-3 R/B in tempo reale con AllMySat

Download on the App Store